<?xml version="1.0" encoding="UTF-8"?><gpx creator="Wikiloc - https://www.wikiloc.com" version="1.1" xmlns="http://www.topografix.com/GPX/1/1" xmlns:xsi="http://www.w3.org/2001/XMLSchema-instance" xsi:schemaLocation="http://www.topografix.com/GPX/1/1 http://www.topografix.com/GPX/1/1/gpx.xsd"><metadata><name>Wikiloc - Paseos Rurales - Metellinum</name><author><name>Red Extremeña de Desarrollo Rural (REDEX)</name><link href="https://www.wikiloc.com/wikiloc/user.do?id=2006209"><text>Red Extremeña de Desarrollo Rural (REDEX) on Wikiloc</text></link></author><link href="https://www.wikiloc.com/walking-trails/paseos-rurales-metellinum-30883767"><text>Paseos Rurales - Metellinum on Wikiloc</text></link><time>2018-11-27T17:40:33Z</time></metadata><trk><name>Paseos Rurales - Metellinum</name><cmt></cmt><desc></desc><trkseg><trkpt lat="38.963998" lon="-5.957942"><ele>250.397</ele><time>1970-01-01T00:00:00Z</time></trkpt><trkpt lat="38.964143" lon="-5.957988"><ele>250.923</ele><time>1970-01-01T00:00:00Z</time></trkpt><trkpt lat="38.964247" lon="-5.957942"><ele>251.325</ele><time>1970-01-01T00:00:00Z</time></trkpt><trkpt lat="38.964379" lon="-5.957851"><ele>252.208</ele><time>1970-01-01T00:00:00Z</time></trkpt><trkpt lat="38.964494" lon="-5.957813"><ele>253.312</ele><time>1970-01-01T00:00:00Z</time></trkpt><trkpt lat="38.964572" lon="-5.957797"><ele>254.659</ele><time>1970-01-01T00:00:00Z</time></trkpt><trkpt lat="38.964832" lon="-5.957714"><ele>259.527</ele><time>1970-01-01T00:00:00Z</time></trkpt><trkpt lat="38.964929" lon="-5.957698"><ele>261.427</ele><time>1970-01-01T00:00:00Z</time></trkpt><trkpt lat="38.965108" lon="-5.957698"><ele>263.932</ele><time>1970-01-01T00:00:00Z</time></trkpt><trkpt lat="38.965170" lon="-5.957698"><ele>264.716</ele><time>1970-01-01T00:00:00Z</time></trkpt><trkpt lat="38.965202" lon="-5.957658"><ele>265.335</ele><time>1970-01-01T00:00:00Z</time></trkpt><trkpt lat="38.965208" lon="-5.957561"><ele>265.866</ele><time>1970-01-01T00:00:00Z</time></trkpt><trkpt lat="38.965253" lon="-5.957290"><ele>267.895</ele><time>1970-01-01T00:00:00Z</time></trkpt><trkpt lat="38.965269" lon="-5.957164"><ele>268.049</ele><time>1970-01-01T00:00:00Z</time></trkpt><trkpt lat="38.965312" lon="-5.957000"><ele>268.423</ele><time>1970-01-01T00:00:00Z</time></trkpt><trkpt lat="38.965411" lon="-5.956897"><ele>269.408</ele><time>1970-01-01T00:00:00Z</time></trkpt><trkpt lat="38.965483" lon="-5.956788"><ele>270.752</ele><time>1970-01-01T00:00:00Z</time></trkpt><trkpt lat="38.965571" lon="-5.956651"><ele>272.469</ele><time>1970-01-01T00:00:00Z</time></trkpt><trkpt lat="38.965647" lon="-5.956549"><ele>273.987</ele><time>1970-01-01T00:00:00Z</time></trkpt><trkpt lat="38.965716" lon="-5.956502"><ele>275.387</ele><time>1970-01-01T00:00:00Z</time></trkpt><trkpt lat="38.965770" lon="-5.956490"><ele>276.542</ele><time>1970-01-01T00:00:00Z</time></trkpt><trkpt lat="38.965770" lon="-5.956540"><ele>276.736</ele><time>1970-01-01T00:00:00Z</time></trkpt><trkpt lat="38.965782" lon="-5.956659"><ele>277.575</ele><time>1970-01-01T00:00:00Z</time></trkpt><trkpt lat="38.965795" lon="-5.956795"><ele>278.316</ele><time>1970-01-01T00:00:00Z</time></trkpt><trkpt lat="38.965808" lon="-5.956986"><ele>279.379</ele><time>1970-01-01T00:00:00Z</time></trkpt><trkpt lat="38.965826" lon="-5.957137"><ele>279.505</ele><time>1970-01-01T00:00:00Z</time></trkpt><trkpt lat="38.965838" lon="-5.957228"><ele>279.525</ele><time>1970-01-01T00:00:00Z</time></trkpt><trkpt lat="38.965878" lon="-5.957271"><ele>280.308</ele><time>1970-01-01T00:00:00Z</time></trkpt><trkpt lat="38.965929" lon="-5.957301"><ele>281.760</ele><time>1970-01-01T00:00:00Z</time></trkpt><trkpt lat="38.965975" lon="-5.957320"><ele>282.917</ele><time>1970-01-01T00:00:00Z</time></trkpt><trkpt lat="38.966042" lon="-5.957354"><ele>284.545</ele><time>1970-01-01T00:00:00Z</time></trkpt><trkpt lat="38.966117" lon="-5.957377"><ele>286.525</ele><time>1970-01-01T00:00:00Z</time></trkpt><trkpt lat="38.966200" lon="-5.957407"><ele>289.260</ele><time>1970-01-01T00:00:00Z</time></trkpt><trkpt lat="38.966258" lon="-5.957438"><ele>291.044</ele><time>1970-01-01T00:00:00Z</time></trkpt><trkpt lat="38.966317" lon="-5.957496"><ele>292.663</ele><time>1970-01-01T00:00:00Z</time></trkpt><trkpt lat="38.966356" lon="-5.957535"><ele>293.594</ele><time>1970-01-01T00:00:00Z</time></trkpt><trkpt lat="38.966381" lon="-5.957525"><ele>294.312</ele><time>1970-01-01T00:00:00Z</time></trkpt><trkpt lat="38.966386" lon="-5.957476"><ele>295.032</ele><time>1970-01-01T00:00:00Z</time></trkpt><trkpt lat="38.966401" lon="-5.957365"><ele>296.705</ele><time>1970-01-01T00:00:00Z</time></trkpt><trkpt lat="38.966411" lon="-5.957216"><ele>298.608</ele><time>1970-01-01T00:00:00Z</time></trkpt><trkpt lat="38.966458" lon="-5.956910"><ele>303.284</ele><time>1970-01-01T00:00:00Z</time></trkpt><trkpt lat="38.966487" lon="-5.956630"><ele>304.981</ele><time>1970-01-01T00:00:00Z</time></trkpt><trkpt lat="38.966509" lon="-5.956541"><ele>306.039</ele><time>1970-01-01T00:00:00Z</time></trkpt><trkpt lat="38.966534" lon="-5.956498"><ele>307.469</ele><time>1970-01-01T00:00:00Z</time></trkpt><trkpt lat="38.966554" lon="-5.956512"><ele>308.694</ele><time>1970-01-01T00:00:00Z</time></trkpt><trkpt lat="38.966555" lon="-5.956592"><ele>308.948</ele><time>1970-01-01T00:00:00Z</time></trkpt><trkpt lat="38.966535" lon="-5.956789"><ele>307.967</ele><time>1970-01-01T00:00:00Z</time></trkpt><trkpt lat="38.966486" lon="-5.957036"><ele>304.338</ele><time>1970-01-01T00:00:00Z</time></trkpt><trkpt lat="38.966452" lon="-5.957340"><ele>298.825</ele><time>1970-01-01T00:00:00Z</time></trkpt><trkpt lat="38.966452" lon="-5.957464"><ele>297.226</ele><time>1970-01-01T00:00:00Z</time></trkpt><trkpt lat="38.966428" lon="-5.957533"><ele>295.608</ele><time>1970-01-01T00:00:00Z</time></trkpt><trkpt lat="38.966380" lon="-5.957582"><ele>293.708</ele><time>1970-01-01T00:00:00Z</time></trkpt><trkpt lat="38.966330" lon="-5.957595"><ele>292.285</ele><time>1970-01-01T00:00:00Z</time></trkpt><trkpt lat="38.966298" lon="-5.957594"><ele>291.272</ele><time>1970-01-01T00:00:00Z</time></trkpt><trkpt lat="38.966274" lon="-5.957558"><ele>290.610</ele><time>1970-01-01T00:00:00Z</time></trkpt><trkpt lat="38.966252" lon="-5.957517"><ele>290.250</ele><time>1970-01-01T00:00:00Z</time></trkpt><trkpt lat="38.966216" lon="-5.957496"><ele>289.195</ele><time>1970-01-01T00:00:00Z</time></trkpt><trkpt lat="38.966179" lon="-5.957474"><ele>287.989</ele><time>1970-01-01T00:00:00Z</time></trkpt><trkpt lat="38.966138" lon="-5.957458"><ele>286.688</ele><time>1970-01-01T00:00:00Z</time></trkpt><trkpt lat="38.966094" lon="-5.957453"><ele>285.149</ele><time>1970-01-01T00:00:00Z</time></trkpt><trkpt lat="38.966054" lon="-5.957448"><ele>284.162</ele><time>1970-01-01T00:00:00Z</time></trkpt><trkpt lat="38.966011" lon="-5.957433"><ele>283.083</ele><time>1970-01-01T00:00:00Z</time></trkpt><trkpt lat="38.965963" lon="-5.957421"><ele>281.811</ele><time>1970-01-01T00:00:00Z</time></trkpt><trkpt lat="38.965921" lon="-5.957409"><ele>280.708</ele><time>1970-01-01T00:00:00Z</time></trkpt><trkpt lat="38.965884" lon="-5.957401"><ele>279.749</ele><time>1970-01-01T00:00:00Z</time></trkpt><trkpt lat="38.965865" lon="-5.957410"><ele>279.216</ele><time>1970-01-01T00:00:00Z</time></trkpt><trkpt lat="38.965855" lon="-5.957476"><ele>278.514</ele><time>1970-01-01T00:00:00Z</time></trkpt><trkpt lat="38.965849" lon="-5.957515"><ele>278.134</ele><time>1970-01-01T00:00:00Z</time></trkpt><trkpt lat="38.965845" lon="-5.957576"><ele>277.619</ele><time>1970-01-01T00:00:00Z</time></trkpt><trkpt lat="38.965838" lon="-5.957630"><ele>277.143</ele><time>1970-01-01T00:00:00Z</time></trkpt><trkpt lat="38.965829" lon="-5.957709"><ele>276.312</ele><time>1970-01-01T00:00:00Z</time></trkpt><trkpt lat="38.965806" lon="-5.957778"><ele>275.413</ele><time>1970-01-01T00:00:00Z</time></trkpt><trkpt lat="38.965794" lon="-5.957843"><ele>274.798</ele><time>1970-01-01T00:00:00Z</time></trkpt><trkpt lat="38.965776" lon="-5.957906"><ele>274.015</ele><time>1970-01-01T00:00:00Z</time></trkpt><trkpt lat="38.965747" lon="-5.957976"><ele>273.026</ele><time>1970-01-01T00:00:00Z</time></trkpt><trkpt lat="38.965697" lon="-5.958024"><ele>271.908</ele><time>1970-01-01T00:00:00Z</time></trkpt><trkpt lat="38.965669" lon="-5.958042"><ele>271.492</ele><time>1970-01-01T00:00:00Z</time></trkpt><trkpt lat="38.965611" lon="-5.958070"><ele>270.399</ele><time>1970-01-01T00:00:00Z</time></trkpt><trkpt lat="38.965594" lon="-5.958077"><ele>270.087</ele><time>1970-01-01T00:00:00Z</time></trkpt><trkpt lat="38.965524" lon="-5.958118"><ele>268.867</ele><time>1970-01-01T00:00:00Z</time></trkpt><trkpt lat="38.965493" lon="-5.958236"><ele>267.772</ele><time>1970-01-01T00:00:00Z</time></trkpt><trkpt lat="38.965446" lon="-5.958379"><ele>266.526</ele><time>1970-01-01T00:00:00Z</time></trkpt><trkpt lat="38.965423" lon="-5.958469"><ele>265.785</ele><time>1970-01-01T00:00:00Z</time></trkpt><trkpt lat="38.965425" lon="-5.958533"><ele>265.276</ele><time>1970-01-01T00:00:00Z</time></trkpt><trkpt lat="38.965437" lon="-5.958588"><ele>264.931</ele><time>1970-01-01T00:00:00Z</time></trkpt><trkpt lat="38.965429" lon="-5.958668"><ele>264.161</ele><time>1970-01-01T00:00:00Z</time></trkpt><trkpt lat="38.965411" lon="-5.958779"><ele>263.007</ele><time>1970-01-01T00:00:00Z</time></trkpt><trkpt lat="38.965345" lon="-5.959067"><ele>260.208</ele><time>1970-01-01T00:00:00Z</time></trkpt><trkpt lat="38.965308" lon="-5.959197"><ele>259.146</ele><time>1970-01-01T00:00:00Z</time></trkpt><trkpt lat="38.965303" lon="-5.959302"><ele>258.493</ele><time>1970-01-01T00:00:00Z</time></trkpt><trkpt lat="38.965321" lon="-5.959371"><ele>258.361</ele><time>1970-01-01T00:00:00Z</time></trkpt><trkpt lat="38.965504" lon="-5.959707"><ele>256.251</ele><time>1970-01-01T00:00:00Z</time></trkpt><trkpt lat="38.965651" lon="-5.959996"><ele>254.346</ele><time>1970-01-01T00:00:00Z</time></trkpt><trkpt lat="38.965751" lon="-5.960168"><ele>252.540</ele><time>1970-01-01T00:00:00Z</time></trkpt><trkpt lat="38.965886" lon="-5.960511"><ele>249.559</ele><time>1970-01-01T00:00:00Z</time></trkpt><trkpt lat="38.965987" lon="-5.960743"><ele>247.230</ele><time>1970-01-01T00:00:00Z</time></trkpt><trkpt lat="38.966050" lon="-5.960923"><ele>245.732</ele><time>1970-01-01T00:00:00Z</time></trkpt><trkpt lat="38.966059" lon="-5.961005"><ele>245.192</ele><time>1970-01-01T00:00:00Z</time></trkpt><trkpt lat="38.966024" lon="-5.961077"><ele>244.811</ele><time>1970-01-01T00:00:00Z</time></trkpt><trkpt lat="38.965982" lon="-5.961156"><ele>244.808</ele><time>1970-01-01T00:00:00Z</time></trkpt><trkpt lat="38.965951" lon="-5.961254"><ele>244.696</ele><time>1970-01-01T00:00:00Z</time></trkpt><trkpt lat="38.965916" lon="-5.961331"><ele>244.443</ele><time>1970-01-01T00:00:00Z</time></trkpt><trkpt lat="38.965931" lon="-5.961442"><ele>243.761</ele><time>1970-01-01T00:00:00Z</time></trkpt><trkpt lat="38.966043" lon="-5.961587"><ele>241.661</ele><time>1970-01-01T00:00:00Z</time></trkpt><trkpt lat="38.966130" lon="-5.961670"><ele>240.126</ele><time>1970-01-01T00:00:00Z</time></trkpt><trkpt lat="38.966821" lon="-5.962341"><ele>236.030</ele><time>1970-01-01T00:00:00Z</time></trkpt><trkpt lat="38.967459" lon="-5.962939"><ele>235.219</ele><time>1970-01-01T00:00:00Z</time></trkpt><trkpt lat="38.967895" lon="-5.963349"><ele>235.980</ele><time>1970-01-01T00:00:00Z</time></trkpt><trkpt lat="38.968636" lon="-5.964042"><ele>236.598</ele><time>1970-01-01T00:00:00Z</time></trkpt><trkpt lat="38.969205" lon="-5.964576"><ele>239.015</ele><time>1970-01-01T00:00:00Z</time></trkpt><trkpt lat="38.969272" lon="-5.964644"><ele>239.326</ele><time>1970-01-01T00:00:00Z</time></trkpt><trkpt lat="38.969327" lon="-5.964689"><ele>239.408</ele><time>1970-01-01T00:00:00Z</time></trkpt><trkpt lat="38.969353" lon="-5.964709"><ele>239.592</ele><time>1970-01-01T00:00:00Z</time></trkpt><trkpt lat="38.969370" lon="-5.964729"><ele>239.519</ele><time>1970-01-01T00:00:00Z</time></trkpt><trkpt lat="38.969393" lon="-5.964777"><ele>239.557</ele><time>1970-01-01T00:00:00Z</time></trkpt><trkpt lat="38.969401" lon="-5.964827"><ele>239.547</ele><time>1970-01-01T00:00:00Z</time></trkpt><trkpt lat="38.969373" lon="-5.964862"><ele>239.582</ele><time>1970-01-01T00:00:00Z</time></trkpt><trkpt lat="38.969373" lon="-5.964901"><ele>239.536</ele><time>1970-01-01T00:00:00Z</time></trkpt><trkpt lat="38.969353" lon="-5.964986"><ele>239.575</ele><time>1970-01-01T00:00:00Z</time></trkpt><trkpt lat="38.969359" lon="-5.965051"><ele>239.426</ele><time>1970-01-01T00:00:00Z</time></trkpt><trkpt lat="38.969384" lon="-5.965157"><ele>239.342</ele><time>1970-01-01T00:00:00Z</time></trkpt><trkpt lat="38.969420" lon="-5.965296"><ele>239.322</ele><time>1970-01-01T00:00:00Z</time></trkpt><trkpt lat="38.969516" lon="-5.965686"><ele>239.714</ele><time>1970-01-01T00:00:00Z</time></trkpt><trkpt lat="38.969586" lon="-5.965974"><ele>240.008</ele><time>1970-01-01T00:00:00Z</time></trkpt><trkpt lat="38.969600" lon="-5.966032"><ele>240.197</ele><time>1970-01-01T00:00:00Z</time></trkpt><trkpt lat="38.969613" lon="-5.966134"><ele>240.154</ele><time>1970-01-01T00:00:00Z</time></trkpt><trkpt lat="38.969621" lon="-5.966241"><ele>240.092</ele><time>1970-01-01T00:00:00Z</time></trkpt><trkpt lat="38.969614" lon="-5.966394"><ele>240.022</ele><time>1970-01-01T00:00:00Z</time></trkpt><trkpt lat="38.969606" lon="-5.966701"><ele>240.357</ele><time>1970-01-01T00:00:00Z</time></trkpt><trkpt lat="38.969653" lon="-5.967141"><ele>240.321</ele><time>1970-01-01T00:00:00Z</time></trkpt><trkpt lat="38.969657" lon="-5.967236"><ele>240.370</ele><time>1970-01-01T00:00:00Z</time></trkpt><trkpt lat="38.969672" lon="-5.968272"><ele>240.981</ele><time>1970-01-01T00:00:00Z</time></trkpt><trkpt lat="38.969702" lon="-5.968897"><ele>241.032</ele><time>1970-01-01T00:00:00Z</time></trkpt><trkpt lat="38.969699" lon="-5.969654"><ele>241.492</ele><time>1970-01-01T00:00:00Z</time></trkpt><trkpt lat="38.969699" lon="-5.969876"><ele>241.411</ele><time>1970-01-01T00:00:00Z</time></trkpt><trkpt lat="38.969728" lon="-5.970169"><ele>241.408</ele><time>1970-01-01T00:00:00Z</time></trkpt><trkpt lat="38.969795" lon="-5.970579"><ele>241.256</ele><time>1970-01-01T00:00:00Z</time></trkpt><trkpt lat="38.969822" lon="-5.970877"><ele>241.043</ele><time>1970-01-01T00:00:00Z</time></trkpt><trkpt lat="38.969822" lon="-5.971113"><ele>240.951</ele><time>1970-01-01T00:00:00Z</time></trkpt><trkpt lat="38.969758" lon="-5.971373"><ele>240.991</ele><time>1970-01-01T00:00:00Z</time></trkpt><trkpt lat="38.969759" lon="-5.971532"><ele>240.976</ele><time>1970-01-01T00:00:00Z</time></trkpt><trkpt lat="38.969786" lon="-5.971932"><ele>240.960</ele><time>1970-01-01T00:00:00Z</time></trkpt><trkpt lat="38.969824" lon="-5.972133"><ele>240.859</ele><time>1970-01-01T00:00:00Z</time></trkpt><trkpt lat="38.969910" lon="-5.972546"><ele>240.840</ele><time>1970-01-01T00:00:00Z</time></trkpt><trkpt lat="38.970038" lon="-5.972924"><ele>240.629</ele><time>1970-01-01T00:00:00Z</time></trkpt><trkpt lat="38.970130" lon="-5.973257"><ele>240.400</ele><time>1970-01-01T00:00:00Z</time></trkpt><trkpt lat="38.970264" lon="-5.973630"><ele>240.320</ele><time>1970-01-01T00:00:00Z</time></trkpt><trkpt lat="38.970401" lon="-5.973895"><ele>240.008</ele><time>1970-01-01T00:00:00Z</time></trkpt><trkpt lat="38.970505" lon="-5.974144"><ele>239.755</ele><time>1970-01-01T00:00:00Z</time></trkpt><trkpt lat="38.970632" lon="-5.974418"><ele>239.922</ele><time>1970-01-01T00:00:00Z</time></trkpt><trkpt lat="38.970680" lon="-5.974582"><ele>240.220</ele><time>1970-01-01T00:00:00Z</time></trkpt><trkpt lat="38.970704" lon="-5.974783"><ele>240.550</ele><time>1970-01-01T00:00:00Z</time></trkpt><trkpt lat="38.970742" lon="-5.974920"><ele>241.035</ele><time>1970-01-01T00:00:00Z</time></trkpt><trkpt lat="38.970760" lon="-5.974992"><ele>241.399</ele><time>1970-01-01T00:00:00Z</time></trkpt><trkpt lat="38.970777" lon="-5.975030"><ele>241.658</ele><time>1970-01-01T00:00:00Z</time></trkpt><trkpt lat="38.970785" lon="-5.975146"><ele>241.939</ele><time>1970-01-01T00:00:00Z</time></trkpt><trkpt lat="38.970800" lon="-5.975275"><ele>241.994</ele><time>1970-01-01T00:00:00Z</time></trkpt><trkpt lat="38.970815" lon="-5.975563"><ele>241.957</ele><time>1970-01-01T00:00:00Z</time></trkpt><trkpt lat="38.970868" lon="-5.975914"><ele>241.822</ele><time>1970-01-01T00:00:00Z</time></trkpt><trkpt lat="38.970919" lon="-5.976283"><ele>241.808</ele><time>1970-01-01T00:00:00Z</time></trkpt><trkpt lat="38.970940" lon="-5.976573"><ele>241.932</ele><time>1970-01-01T00:00:00Z</time></trkpt><trkpt lat="38.971035" lon="-5.977698"><ele>242.059</ele><time>1970-01-01T00:00:00Z</time></trkpt><trkpt lat="38.971085" lon="-5.978239"><ele>241.977</ele><time>1970-01-01T00:00:00Z</time></trkpt><trkpt lat="38.971148" lon="-5.979269"><ele>241.167</ele><time>1970-01-01T00:00:00Z</time></trkpt><trkpt lat="38.971155" lon="-5.979396"><ele>241.042</ele><time>1970-01-01T00:00:00Z</time></trkpt><trkpt lat="38.971158" lon="-5.979577"><ele>241.046</ele><time>1970-01-01T00:00:00Z</time></trkpt><trkpt lat="38.971163" lon="-5.979916"><ele>241.155</ele><time>1970-01-01T00:00:00Z</time></trkpt><trkpt lat="38.971182" lon="-5.980632"><ele>240.826</ele><time>1970-01-01T00:00:00Z</time></trkpt><trkpt lat="38.971206" lon="-5.981518"><ele>240.112</ele><time>1970-01-01T00:00:00Z</time></trkpt><trkpt lat="38.971235" lon="-5.981992"><ele>239.332</ele><time>1970-01-01T00:00:00Z</time></trkpt><trkpt lat="38.971243" lon="-5.982175"><ele>239.305</ele><time>1970-01-01T00:00:00Z</time></trkpt><trkpt lat="38.971171" lon="-5.982215"><ele>239.208</ele><time>1970-01-01T00:00:00Z</time></trkpt><trkpt lat="38.971112" lon="-5.982220"><ele>239.154</ele><time>1970-01-01T00:00:00Z</time></trkpt><trkpt lat="38.971023" lon="-5.982177"><ele>239.111</ele><time>1970-01-01T00:00:00Z</time></trkpt><trkpt lat="38.970964" lon="-5.982151"><ele>239.219</ele><time>1970-01-01T00:00:00Z</time></trkpt><trkpt lat="38.970883" lon="-5.982127"><ele>239.359</ele><time>1970-01-01T00:00:00Z</time></trkpt><trkpt lat="38.970814" lon="-5.982100"><ele>239.564</ele><time>1970-01-01T00:00:00Z</time></trkpt><trkpt lat="38.970722" lon="-5.982084"><ele>239.778</ele><time>1970-01-01T00:00:00Z</time></trkpt><trkpt lat="38.970655" lon="-5.982079"><ele>239.897</ele><time>1970-01-01T00:00:00Z</time></trkpt><trkpt lat="38.970543" lon="-5.982095"><ele>239.878</ele><time>1970-01-01T00:00:00Z</time></trkpt><trkpt lat="38.970401" lon="-5.982151"><ele>239.765</ele><time>1970-01-01T00:00:00Z</time></trkpt><trkpt lat="38.970301" lon="-5.982223"><ele>239.768</ele><time>1970-01-01T00:00:00Z</time></trkpt><trkpt lat="38.970229" lon="-5.982288"><ele>239.714</ele><time>1970-01-01T00:00:00Z</time></trkpt><trkpt lat="38.970128" lon="-5.982370"><ele>239.708</ele><time>1970-01-01T00:00:00Z</time></trkpt><trkpt lat="38.970018" lon="-5.982420"><ele>239.639</ele><time>1970-01-01T00:00:00Z</time></trkpt><trkpt lat="38.969875" lon="-5.982471"><ele>239.546</ele><time>1970-01-01T00:00:00Z</time></trkpt><trkpt lat="38.969765" lon="-5.982504"><ele>239.534</ele><time>1970-01-01T00:00:00Z</time></trkpt><trkpt lat="38.969582" lon="-5.982504"><ele>239.674</ele><time>1970-01-01T00:00:00Z</time></trkpt><trkpt lat="38.969392" lon="-5.982517"><ele>239.929</ele><time>1970-01-01T00:00:00Z</time></trkpt><trkpt lat="38.968933" lon="-5.982520"><ele>239.833</ele><time>1970-01-01T00:00:00Z</time></trkpt><trkpt lat="38.968571" lon="-5.982509"><ele>239.592</ele><time>1970-01-01T00:00:00Z</time></trkpt><trkpt lat="38.968130" lon="-5.982528"><ele>239.273</ele><time>1970-01-01T00:00:00Z</time></trkpt><trkpt lat="38.967752" lon="-5.982541"><ele>239.168</ele><time>1970-01-01T00:00:00Z</time></trkpt><trkpt lat="38.967414" lon="-5.982549"><ele>239.142</ele><time>1970-01-01T00:00:00Z</time></trkpt><trkpt lat="38.967103" lon="-5.982558"><ele>239.126</ele><time>1970-01-01T00:00:00Z</time></trkpt><trkpt lat="38.966806" lon="-5.982553"><ele>240.108</ele><time>1970-01-01T00:00:00Z</time></trkpt><trkpt lat="38.966692" lon="-5.982545"><ele>240.259</ele><time>1970-01-01T00:00:00Z</time></trkpt><trkpt lat="38.966475" lon="-5.982591"><ele>239.986</ele><time>1970-01-01T00:00:00Z</time></trkpt><trkpt lat="38.966333" lon="-5.982639"><ele>239.574</ele><time>1970-01-01T00:00:00Z</time></trkpt><trkpt lat="38.966250" lon="-5.982671"><ele>239.054</ele><time>1970-01-01T00:00:00Z</time></trkpt><trkpt lat="38.965961" lon="-5.982779"><ele>238.989</ele><time>1970-01-01T00:00:00Z</time></trkpt><trkpt lat="38.965611" lon="-5.983006"><ele>238.733</ele><time>1970-01-01T00:00:00Z</time></trkpt><trkpt lat="38.965355" lon="-5.983219"><ele>238.612</ele><time>1970-01-01T00:00:00Z</time></trkpt><trkpt lat="38.965072" lon="-5.983419"><ele>238.893</ele><time>1970-01-01T00:00:00Z</time></trkpt><trkpt lat="38.964871" lon="-5.983521"><ele>238.839</ele><time>1970-01-01T00:00:00Z</time></trkpt><trkpt lat="38.964807" lon="-5.983545"><ele>238.601</ele><time>1970-01-01T00:00:00Z</time></trkpt><trkpt lat="38.964729" lon="-5.983553"><ele>238.521</ele><time>1970-01-01T00:00:00Z</time></trkpt><trkpt lat="38.964673" lon="-5.983518"><ele>238.708</ele><time>1970-01-01T00:00:00Z</time></trkpt><trkpt lat="38.964584" lon="-5.983494"><ele>238.896</ele><time>1970-01-01T00:00:00Z</time></trkpt><trkpt lat="38.964525" lon="-5.983475"><ele>238.743</ele><time>1970-01-01T00:00:00Z</time></trkpt><trkpt lat="38.964458" lon="-5.983462"><ele>238.891</ele><time>1970-01-01T00:00:00Z</time></trkpt><trkpt lat="38.964391" lon="-5.983462"><ele>238.861</ele><time>1970-01-01T00:00:00Z</time></trkpt><trkpt lat="38.964313" lon="-5.983478"><ele>238.836</ele><time>1970-01-01T00:00:00Z</time></trkpt><trkpt lat="38.964273" lon="-5.983483"><ele>238.880</ele><time>1970-01-01T00:00:00Z</time></trkpt><trkpt lat="38.964222" lon="-5.983478"><ele>238.929</ele><time>1970-01-01T00:00:00Z</time></trkpt><trkpt lat="38.964195" lon="-5.983459"><ele>239.080</ele><time>1970-01-01T00:00:00Z</time></trkpt><trkpt lat="38.964187" lon="-5.983309"><ele>239.589</ele><time>1970-01-01T00:00:00Z</time></trkpt><trkpt lat="38.964160" lon="-5.982352"><ele>240.606</ele><time>1970-01-01T00:00:00Z</time></trkpt><trkpt lat="38.964163" lon="-5.981973"><ele>240.626</ele><time>1970-01-01T00:00:00Z</time></trkpt><trkpt lat="38.964152" lon="-5.981691"><ele>240.508</ele><time>1970-01-01T00:00:00Z</time></trkpt><trkpt lat="38.964147" lon="-5.981584"><ele>240.461</ele><time>1970-01-01T00:00:00Z</time></trkpt><trkpt lat="38.964160" lon="-5.981404"><ele>240.088</ele><time>1970-01-01T00:00:00Z</time></trkpt><trkpt lat="38.964227" lon="-5.981170"><ele>239.926</ele><time>1970-01-01T00:00:00Z</time></trkpt><trkpt lat="38.964316" lon="-5.980934"><ele>240.596</ele><time>1970-01-01T00:00:00Z</time></trkpt><trkpt lat="38.964402" lon="-5.980760"><ele>240.351</ele><time>1970-01-01T00:00:00Z</time></trkpt><trkpt lat="38.964493" lon="-5.980642"><ele>239.915</ele><time>1970-01-01T00:00:00Z</time></trkpt><trkpt lat="38.964582" lon="-5.980326"><ele>240.164</ele><time>1970-01-01T00:00:00Z</time></trkpt><trkpt lat="38.964651" lon="-5.979977"><ele>239.745</ele><time>1970-01-01T00:00:00Z</time></trkpt><trkpt lat="38.964710" lon="-5.979714"><ele>239.631</ele><time>1970-01-01T00:00:00Z</time></trkpt><trkpt lat="38.964761" lon="-5.979473"><ele>239.661</ele><time>1970-01-01T00:00:00Z</time></trkpt><trkpt lat="38.964788" lon="-5.979304"><ele>239.707</ele><time>1970-01-01T00:00:00Z</time></trkpt><trkpt lat="38.964954" lon="-5.978497"><ele>239.608</ele><time>1970-01-01T00:00:00Z</time></trkpt><trkpt lat="38.965134" lon="-5.977839"><ele>240.386</ele><time>1970-01-01T00:00:00Z</time></trkpt><trkpt lat="38.965222" lon="-5.977373"><ele>240.213</ele><time>1970-01-01T00:00:00Z</time></trkpt><trkpt lat="38.965327" lon="-5.976909"><ele>240.341</ele><time>1970-01-01T00:00:00Z</time></trkpt><trkpt lat="38.965393" lon="-5.976661"><ele>240.421</ele><time>1970-01-01T00:00:00Z</time></trkpt><trkpt lat="38.965425" lon="-5.976554"><ele>240.666</ele><time>1970-01-01T00:00:00Z</time></trkpt><trkpt lat="38.965307" lon="-5.976504"><ele>239.720</ele><time>1970-01-01T00:00:00Z</time></trkpt><trkpt lat="38.965275" lon="-5.976481"><ele>239.359</ele><time>1970-01-01T00:00:00Z</time></trkpt><trkpt lat="38.965235" lon="-5.976437"><ele>238.870</ele><time>1970-01-01T00:00:00Z</time></trkpt><trkpt lat="38.965307" lon="-5.976122"><ele>239.348</ele><time>1970-01-01T00:00:00Z</time></trkpt><trkpt lat="38.965343" lon="-5.975865"><ele>239.061</ele><time>1970-01-01T00:00:00Z</time></trkpt><trkpt lat="38.965366" lon="-5.975773"><ele>238.817</ele><time>1970-01-01T00:00:00Z</time></trkpt><trkpt lat="38.965453" lon="-5.975226"><ele>238.708</ele><time>1970-01-01T00:00:00Z</time></trkpt><trkpt lat="38.965576" lon="-5.974807"><ele>239.277</ele><time>1970-01-01T00:00:00Z</time></trkpt><trkpt lat="38.965681" lon="-5.974467"><ele>239.264</ele><time>1970-01-01T00:00:00Z</time></trkpt><trkpt lat="38.965729" lon="-5.974316"><ele>239.232</ele><time>1970-01-01T00:00:00Z</time></trkpt><trkpt lat="38.965743" lon="-5.974230"><ele>239.252</ele><time>1970-01-01T00:00:00Z</time></trkpt><trkpt lat="38.965743" lon="-5.974113"><ele>238.977</ele><time>1970-01-01T00:00:00Z</time></trkpt><trkpt lat="38.965715" lon="-5.973817"><ele>237.961</ele><time>1970-01-01T00:00:00Z</time></trkpt><trkpt lat="38.965728" lon="-5.973763"><ele>238.070</ele><time>1970-01-01T00:00:00Z</time></trkpt><trkpt lat="38.965757" lon="-5.973674"><ele>238.291</ele><time>1970-01-01T00:00:00Z</time></trkpt><trkpt lat="38.965789" lon="-5.973479"><ele>238.338</ele><time>1970-01-01T00:00:00Z</time></trkpt><trkpt lat="38.965816" lon="-5.973237"><ele>238.070</ele><time>1970-01-01T00:00:00Z</time></trkpt><trkpt lat="38.965806" lon="-5.972960"><ele>237.717</ele><time>1970-01-01T00:00:00Z</time></trkpt><trkpt lat="38.965791" lon="-5.972713"><ele>237.608</ele><time>1970-01-01T00:00:00Z</time></trkpt><trkpt lat="38.965769" lon="-5.972559"><ele>237.666</ele><time>1970-01-01T00:00:00Z</time></trkpt><trkpt lat="38.965747" lon="-5.972267"><ele>237.743</ele><time>1970-01-01T00:00:00Z</time></trkpt><trkpt lat="38.965720" lon="-5.972025"><ele>238.121</ele><time>1970-01-01T00:00:00Z</time></trkpt><trkpt lat="38.965747" lon="-5.971762"><ele>238.391</ele><time>1970-01-01T00:00:00Z</time></trkpt><trkpt lat="38.965758" lon="-5.971599"><ele>238.416</ele><time>1970-01-01T00:00:00Z</time></trkpt><trkpt lat="38.965745" lon="-5.971467"><ele>238.520</ele><time>1970-01-01T00:00:00Z</time></trkpt><trkpt lat="38.965696" lon="-5.971349"><ele>238.599</ele><time>1970-01-01T00:00:00Z</time></trkpt><trkpt lat="38.965618" lon="-5.971277"><ele>238.670</ele><time>1970-01-01T00:00:00Z</time></trkpt><trkpt lat="38.965511" lon="-5.971226"><ele>238.777</ele><time>1970-01-01T00:00:00Z</time></trkpt><trkpt lat="38.965396" lon="-5.971186"><ele>238.661</ele><time>1970-01-01T00:00:00Z</time></trkpt><trkpt lat="38.965323" lon="-5.971132"><ele>238.627</ele><time>1970-01-01T00:00:00Z</time></trkpt><trkpt lat="38.965248" lon="-5.971025"><ele>238.408</ele><time>1970-01-01T00:00:00Z</time></trkpt><trkpt lat="38.965173" lon="-5.970775"><ele>238.040</ele><time>1970-01-01T00:00:00Z</time></trkpt><trkpt lat="38.965128" lon="-5.970483"><ele>237.847</ele><time>1970-01-01T00:00:00Z</time></trkpt><trkpt lat="38.965353" lon="-5.969861"><ele>238.645</ele><time>1970-01-01T00:00:00Z</time></trkpt><trkpt lat="38.965466" lon="-5.969311"><ele>238.485</ele><time>1970-01-01T00:00:00Z</time></trkpt><trkpt lat="38.965589" lon="-5.969061"><ele>238.630</ele><time>1970-01-01T00:00:00Z</time></trkpt><trkpt lat="38.965932" lon="-5.968734"><ele>238.764</ele><time>1970-01-01T00:00:00Z</time></trkpt><trkpt lat="38.966042" lon="-5.968573"><ele>238.653</ele><time>1970-01-01T00:00:00Z</time></trkpt><trkpt lat="38.966195" lon="-5.968418"><ele>238.444</ele><time>1970-01-01T00:00:00Z</time></trkpt><trkpt lat="38.966305" lon="-5.968257"><ele>238.288</ele><time>1970-01-01T00:00:00Z</time></trkpt><trkpt lat="38.966396" lon="-5.968104"><ele>237.924</ele><time>1970-01-01T00:00:00Z</time></trkpt><trkpt lat="38.966437" lon="-5.967980"><ele>238.126</ele><time>1970-01-01T00:00:00Z</time></trkpt><trkpt lat="38.966598" lon="-5.967581"><ele>237.808</ele><time>1970-01-01T00:00:00Z</time></trkpt><trkpt lat="38.966679" lon="-5.967390"><ele>238.181</ele><time>1970-01-01T00:00:00Z</time></trkpt><trkpt lat="38.966874" lon="-5.967009"><ele>238.018</ele><time>1970-01-01T00:00:00Z</time></trkpt><trkpt lat="38.967008" lon="-5.966771"><ele>238.456</ele><time>1970-01-01T00:00:00Z</time></trkpt><trkpt lat="38.967188" lon="-5.966484"><ele>238.146</ele><time>1970-01-01T00:00:00Z</time></trkpt><trkpt lat="38.967306" lon="-5.966307"><ele>238.361</ele><time>1970-01-01T00:00:00Z</time></trkpt><trkpt lat="38.967459" lon="-5.966068"><ele>238.335</ele><time>1970-01-01T00:00:00Z</time></trkpt><trkpt lat="38.967599" lon="-5.965810"><ele>238.374</ele><time>1970-01-01T00:00:00Z</time></trkpt><trkpt lat="38.967655" lon="-5.965684"><ele>238.345</ele><time>1970-01-01T00:00:00Z</time></trkpt><trkpt lat="38.967773" lon="-5.965507"><ele>238.651</ele><time>1970-01-01T00:00:00Z</time></trkpt><trkpt lat="38.967912" lon="-5.965381"><ele>238.701</ele><time>1970-01-01T00:00:00Z</time></trkpt><trkpt lat="38.968014" lon="-5.965301"><ele>239.011</ele><time>1970-01-01T00:00:00Z</time></trkpt><trkpt lat="38.968060" lon="-5.965269"><ele>239.108</ele><time>1970-01-01T00:00:00Z</time></trkpt><trkpt lat="38.968134" lon="-5.965230"><ele>239.268</ele><time>1970-01-01T00:00:00Z</time></trkpt><trkpt lat="38.968362" lon="-5.965162"><ele>239.645</ele><time>1970-01-01T00:00:00Z</time></trkpt><trkpt lat="38.968590" lon="-5.965093"><ele>239.863</ele><time>1970-01-01T00:00:00Z</time></trkpt><trkpt lat="38.968756" lon="-5.965044"><ele>239.993</ele><time>1970-01-01T00:00:00Z</time></trkpt><trkpt lat="38.968874" lon="-5.964972"><ele>239.868</ele><time>1970-01-01T00:00:00Z</time></trkpt><trkpt lat="38.968984" lon="-5.964945"><ele>239.752</ele><time>1970-01-01T00:00:00Z</time></trkpt><trkpt lat="38.969064" lon="-5.964956"><ele>239.771</ele><time>1970-01-01T00:00:00Z</time></trkpt><trkpt lat="38.969150" lon="-5.964999"><ele>239.622</ele><time>1970-01-01T00:00:00Z</time></trkpt><trkpt lat="38.969233" lon="-5.965031"><ele>239.526</ele><time>1970-01-01T00:00:00Z</time></trkpt><trkpt lat="38.969260" lon="-5.965036"><ele>239.547</ele><time>1970-01-01T00:00:00Z</time></trkpt><trkpt lat="38.969322" lon="-5.964972"><ele>239.511</ele><time>1970-01-01T00:00:00Z</time></trkpt><trkpt lat="38.969354" lon="-5.964875"><ele>239.508</ele><time>1970-01-01T00:00:00Z</time></trkpt><trkpt lat="38.969370" lon="-5.964808"><ele>239.515</ele><time>1970-01-01T00:00:00Z</time></trkpt><trkpt lat="38.969346" lon="-5.964763"><ele>239.532</ele><time>1970-01-01T00:00:00Z</time></trkpt><trkpt lat="38.969201" lon="-5.964626"><ele>239.130</ele><time>1970-01-01T00:00:00Z</time></trkpt><trkpt lat="38.968539" lon="-5.964014"><ele>236.630</ele><time>1970-01-01T00:00:00Z</time></trkpt><trkpt lat="38.967504" lon="-5.963049"><ele>235.355</ele><time>1970-01-01T00:00:00Z</time></trkpt><trkpt lat="38.966321" lon="-5.961912"><ele>238.829</ele><time>1970-01-01T00:00:00Z</time></trkpt><trkpt lat="38.965933" lon="-5.961541"><ele>243.068</ele><time>1970-01-01T00:00:00Z</time></trkpt><trkpt lat="38.965810" lon="-5.961581"><ele>243.989</ele><time>1970-01-01T00:00:00Z</time></trkpt><trkpt lat="38.965641" lon="-5.961753"><ele>243.643</ele><time>1970-01-01T00:00:00Z</time></trkpt><trkpt lat="38.965528" lon="-5.961871"><ele>243.464</ele><time>1970-01-01T00:00:00Z</time></trkpt><trkpt lat="38.965443" lon="-5.962021"><ele>242.710</ele><time>1970-01-01T00:00:00Z</time></trkpt><trkpt lat="38.965323" lon="-5.962337"><ele>241.908</ele><time>1970-01-01T00:00:00Z</time></trkpt><trkpt lat="38.965178" lon="-5.962429"><ele>241.927</ele><time>1970-01-01T00:00:00Z</time></trkpt><trkpt lat="38.964980" lon="-5.962461"><ele>242.634</ele><time>1970-01-01T00:00:00Z</time></trkpt><trkpt lat="38.964768" lon="-5.962458"><ele>242.692</ele><time>1970-01-01T00:00:00Z</time></trkpt><trkpt lat="38.964642" lon="-5.962469"><ele>242.582</ele><time>1970-01-01T00:00:00Z</time></trkpt><trkpt lat="38.964473" lon="-5.962434"><ele>242.427</ele><time>1970-01-01T00:00:00Z</time></trkpt><trkpt lat="38.964315" lon="-5.962321"><ele>242.481</ele><time>1970-01-01T00:00:00Z</time></trkpt><trkpt lat="38.963944" lon="-5.961948"><ele>243.120</ele><time>1970-01-01T00:00:00Z</time></trkpt><trkpt lat="38.963821" lon="-5.961841"><ele>243.431</ele><time>1970-01-01T00:00:00Z</time></trkpt><trkpt lat="38.963353" lon="-5.961394"><ele>244.489</ele><time>1970-01-01T00:00:00Z</time></trkpt><trkpt lat="38.962980" lon="-5.960989"><ele>244.606</ele><time>1970-01-01T00:00:00Z</time></trkpt><trkpt lat="38.962779" lon="-5.960676"><ele>244.826</ele><time>1970-01-01T00:00:00Z</time></trkpt><trkpt lat="38.962575" lon="-5.960241"><ele>245.508</ele><time>1970-01-01T00:00:00Z</time></trkpt><trkpt lat="38.962546" lon="-5.960177"><ele>245.761</ele><time>1970-01-01T00:00:00Z</time></trkpt><trkpt lat="38.962602" lon="-5.960096"><ele>245.718</ele><time>1970-01-01T00:00:00Z</time></trkpt><trkpt lat="38.962650" lon="-5.960040"><ele>245.616</ele><time>1970-01-01T00:00:00Z</time></trkpt><trkpt lat="38.962667" lon="-5.959981"><ele>245.766</ele><time>1970-01-01T00:00:00Z</time></trkpt><trkpt lat="38.962777" lon="-5.959898"><ele>245.681</ele><time>1970-01-01T00:00:00Z</time></trkpt><trkpt lat="38.962967" lon="-5.959699"><ele>245.445</ele><time>1970-01-01T00:00:00Z</time></trkpt><trkpt lat="38.962996" lon="-5.959659"><ele>245.484</ele><time>1970-01-01T00:00:00Z</time></trkpt><trkpt lat="38.962956" lon="-5.959603"><ele>245.485</ele><time>1970-01-01T00:00:00Z</time></trkpt><trkpt lat="38.962994" lon="-5.959549"><ele>245.451</ele><time>1970-01-01T00:00:00Z</time></trkpt><trkpt lat="38.962999" lon="-5.959490"><ele>245.401</ele><time>1970-01-01T00:00:00Z</time></trkpt><trkpt lat="38.963069" lon="-5.959415"><ele>245.511</ele><time>1970-01-01T00:00:00Z</time></trkpt><trkpt lat="38.963007" lon="-5.959042"><ele>246.208</ele><time>1970-01-01T00:00:00Z</time></trkpt><trkpt lat="38.962954" lon="-5.958801"><ele>246.658</ele><time>1970-01-01T00:00:00Z</time></trkpt><trkpt lat="38.962964" lon="-5.958637"><ele>246.965</ele><time>1970-01-01T00:00:00Z</time></trkpt><trkpt lat="38.962983" lon="-5.958490"><ele>247.153</ele><time>1970-01-01T00:00:00Z</time></trkpt><trkpt lat="38.963007" lon="-5.958471"><ele>247.283</ele><time>1970-01-01T00:00:00Z</time></trkpt><trkpt lat="38.963034" lon="-5.958457"><ele>247.278</ele><time>1970-01-01T00:00:00Z</time></trkpt><trkpt lat="38.963066" lon="-5.958436"><ele>247.352</ele><time>1970-01-01T00:00:00Z</time></trkpt><trkpt lat="38.963018" lon="-5.958321"><ele>247.321</ele><time>1970-01-01T00:00:00Z</time></trkpt><trkpt lat="38.962999" lon="-5.958288"><ele>247.372</ele><time>1970-01-01T00:00:00Z</time></trkpt><trkpt lat="38.963023" lon="-5.958235"><ele>247.465</ele><time>1970-01-01T00:00:00Z</time></trkpt><trkpt lat="38.963069" lon="-5.958221"><ele>247.568</ele><time>1970-01-01T00:00:00Z</time></trkpt><trkpt lat="38.963251" lon="-5.958227"><ele>248.014</ele><time>1970-01-01T00:00:00Z</time></trkpt><trkpt lat="38.963450" lon="-5.958329"><ele>248.508</ele><time>1970-01-01T00:00:00Z</time></trkpt><trkpt lat="38.963672" lon="-5.958425"><ele>249.269</ele><time>1970-01-01T00:00:00Z</time></trkpt><trkpt lat="38.963774" lon="-5.958490"><ele>249.776</ele><time>1970-01-01T00:00:00Z</time></trkpt><trkpt lat="38.963801" lon="-5.958511"><ele>249.834</ele><time>1970-01-01T00:00:00Z</time></trkpt><trkpt lat="38.963809" lon="-5.958897"><ele>250.294</ele><time>1970-01-01T00:00:00Z</time></trkpt><trkpt lat="38.963823" lon="-5.959021"><ele>250.579</ele><time>1970-01-01T00:00:00Z</time></trkpt><trkpt lat="38.963935" lon="-5.959061"><ele>251.233</ele><time>1970-01-01T00:00:00Z</time></trkpt><trkpt lat="38.963997" lon="-5.959064"><ele>251.522</ele><time>1970-01-01T00:00:00Z</time></trkpt><trkpt lat="38.964043" lon="-5.959058"><ele>251.843</ele><time>1970-01-01T00:00:00Z</time></trkpt><trkpt lat="38.964099" lon="-5.959045"><ele>252.191</ele><time>1970-01-01T00:00:00Z</time></trkpt><trkpt lat="38.964123" lon="-5.958983"><ele>252.481</ele><time>1970-01-01T00:00:00Z</time></trkpt><trkpt lat="38.964123" lon="-5.958865"><ele>252.419</ele><time>1970-01-01T00:00:00Z</time></trkpt><trkpt lat="38.964158" lon="-5.958640"><ele>252.308</ele><time>1970-01-01T00:00:00Z</time></trkpt><trkpt lat="38.964158" lon="-5.958420"><ele>251.772</ele><time>1970-01-01T00:00:00Z</time></trkpt><trkpt lat="38.964171" lon="-5.958232"><ele>251.469</ele><time>1970-01-01T00:00:00Z</time></trkpt><trkpt lat="38.964177" lon="-5.958144"><ele>251.217</ele><time>1970-01-01T00:00:00Z</time></trkpt><trkpt lat="38.964093" lon="-5.958055"><ele>250.787</ele><time>1970-01-01T00:00:00Z</time></trkpt><trkpt lat="38.963992" lon="-5.958017"><ele>250.322</ele><time>1970-01-01T00:00:00Z</time></trkpt></trkseg></trk></gpx>